Voltar ao catálogo

STARLINK-36093

AtivoComunicaçõesVLEO
NORAD 67015·PAYLOAD·🇺🇸 United States

Lançado Dec 10, 2025 de Vandenberg Space Force Base

Loading…

Próximas Passagens (próximas 24 horas)

TLE

AtualizadoSource: CelesTrak SupGP

Época: Sep 15, 2026, 02:44 UTC

1 67015C 25293N   26258.11437500  .00069906  00000+0  58581-2 0  2580
2 67015  70.0016 336.8233 0003832 266.6199  51.3174 14.98295433    18

Acompanhe STARLINK-36093 em tempo real com AllMySat

Download on the App Store